User: anonymous   Login
Location: Unspecified
(0.0000°N, 0.0000°E)
Time: 01:05:52
(UTC+00:00)
Language:

TIANWANG 1B (TW-1B) - Orbit

View from above orbital plane
View from above orbital plane
View from above satellite
View from above satellite

Ground track
Ground track

The orbit data is extracted from the following two-line orbital elements,

1 40927U 15051C   21023.70233439  .00076816  00000-0  39406-3 0  9996
2 40927  97.0542  82.1771 0002578   2.6042 116.2504 15.81044789301351
Epoch (UTC): 23 January 2021 16:51:21
Eccentricity: 0.0002578
inclination: 97.0542°
perigee height: 326 km
apogee height: 329 km
right ascension of ascending node: 82.1771°
argument of perigee: 2.6042°
revolutions per day: 15.81044789
mean anomaly at epoch: 116.2504°
orbit number at epoch: 30135

The dashed part of the orbit path shows where the satellite is in the earth's shadow,  

DLR